STARLINK-5175, 54079

Orbit data source: Space-Track

STARLINK-5175, 54079 is a payload satellite owned by SpaceX/Seattle (US) in LEO that was launched on Thu, 20 Oct 2022 UTC via an FALCON 9 launch vehicle from the Air Force Eastern Test Range (AFETR). Payload-class satellites include a variety of spacecraft equipped with specific instruments for various scientific and technological missions. These include communications satellites like Starlink; space stations such as the ISS; scientific satellites like the Hubble; Earth observation satellites from companies like Planet Labs, Umbra, and HawkEye 360; GPS; miniature CubeSats for education and research; and military/defense satellites.

Loading next visibility...
Identifier
54079, 2022-136AE
Orbit
LEO
Last TLE update
14 hours ago
Origin
Manufacturer
SpaceX/Seattle
Mission
Operational Commercial Communications
Bus & Motor
STARLINK, Unknown motor
Mass
305 kg wet, ~290 kg dry
Launch date (UTC)
2022-10-20 (3 years ago)
Launch vehicle
FALCON 9
Launch site
Air Force Eastern Test Range (AFETR)
Object type
Payload
Rocket body
Debris
Shape & HBR
Box + 1 Pan, 8.86 m
Radar Cross Section
13.562 m², Large (>1 m²)

Expand to show TLE details & history

TLE from 14 hours ago
0 STARLINK-5175
1 54079U 22136AE  25181.86307961  .00000259  00000-0  34387-4 0  9991
2 54079  53.2181  24.8373 0001387  92.7492 267.3659 15.08829314148963
Epoch: 2025-06-30T20:42Z
TLE epoch observation values (Epoch: 2025-06-30T20:42:50.078Z)
Latitude
-0.00001°
Longitude
154.96185°
Altitude
540.718 km
Speed
7.593 km/s
True Right ascension
01h 39m 20s
True Declination
0° 00' 00"
Sunlit
Object was in daylight at epoch
Visualization orbit readout
Latitude
-41.68934°
Longitude
13.85525°
Altitude
554.401 km
Speed
7.584 km/s
Apparent Right ascension
13h 17m 35s
Apparent Declination
-51° 01' 38"
Sunlit
Object is in full shadow
Visualization observer readout
Local Sidereal Time
22:06:49
Azimuth
235.087° WSW
Elevation
-55.444°
Doppler factor
1
Orbital elements
Apogee altitude
540.98 km
Perigee altitude
539.061 km
Semi-major axis
6,918.158 km
Eccentricity
0.00014
Inclination
53.2181°
RAAN
24.8373°
Arg. of periapsis
92.7492°
True anomaly
Unknown
Mean anomaly
267.3659°
Eccentric anomaly
Unknown
Mean motion
3.77188 °/min
Orbital period
95.44 mins
BSTAR
0.000034387
Loading maneuver chart data...
Loading SW <> Apogee altitude chart data...
Loading historical data...
Loading historical data...
Loading historical data...
Loading historical data...
Loading historical data...
Loading historical data...
Loading historical data...

STARLINK-5175 Visibility forecast

Observer location: undefined°, undefined°

Span
Click to sort rows by Start time (UTC) header in descending order
Start Az.
Max El. time (UTC)
Max El. Az.
Max El.
End time (UTC)
End Az.
7 mins2025-07-01 15:57:22.257Z215.107° SW2025-07-01 16:00:22.257Z170.054° S39.952°2025-07-01 16:04:22.257Z57.029° ENE
5 mins2025-07-01 17:38:22.257Z291.941° WNW2025-07-01 17:40:22.257Z333.19° NNW22.993°2025-07-01 17:43:22.257Z27.327° NE
6 mins2025-07-01 22:39:22.257Z324.161° NNW2025-07-01 22:41:22.257Z15.655° NNE39.898°2025-07-01 22:45:22.257Z116.178° SE
4 mins2025-07-02 00:19:22.257Z256.873° W2025-07-02 00:20:22.257Z238.273° WSW17.762°2025-07-02 00:23:22.257Z188.807° SSW
|